Temperature
21 21 21 21 21 21 21 20 20 20 20 19 19 19 19 18 18 17 16 16 15 15 15 15 14 14 14 14 13 13 13 13 13 13 13 12 12 12 12 12 12 12 12 12
20 21 21 20 21 21 20 20 20 20 19 20 20 19 18 18 17 16 16 15 15 15 14 14 14 14 13 13 13 13 13 12 12 12 12 12 12 12 12 12 12 12 12 11
19 20 20 19 20 20 20 20 20 19 19 19 18 18 17 17 16 15 15 15 14 14 14 14 13 13 13 13 12 12 12 12 12 12 12 12 11 11 11 11 11 11 11 11
19 19 18 19 21 20 20 20 20 19 19 19 18 17 16 16 15 15 14 14 13 13 13 13 13 13 12 12 12 12 12 12 11 11 11 11 11 11 11 11 11 11 10 10
18 18 18 19 20 20 19 19 19 19 18 18 17 17 16 15 15 14 14 13 13 13 12 12 12 12 11 11 11 11 11 11 11 11 11 11 10 10 10 10 10 10 10 10
18 17 17 18 19 19 19 17 18 18 18 17 17 15 15 15 14 14 13 13 12 12 12 12 11 11 11 11 11 11 11 11 10 10 10 10 10 10 10 10 10 9 9 9
17 17 18 18 18 18 17 17 17 17 17 17 16 15 15 14 13 13 12 12 11 11 11 11 11 11 11 10 10 10 10 10 10 10 9 9 9 9 9 9 9 9 9 9
17 17 17 18 18 17 17 17 17 16 16 15 15 14 14 13 13 12 12 11 11 11 10 10 10 10 10 10 10 9 9 9 9 9 9 9 9 9 9 9 8 8 8 8
17 17 17 17 17 16 16 16 16 15 15 14 14 13 13 12 12 11 11 11 10 10 10 10 10 9 9 9 9 9 9 8 8 8 8 8 8 8 8 8 8 8 8 8
17 17 17 16 16 15 15 15 15 14 14 14 13 13 12 12 11 11 10 10 10 9 9 9 9 9 9 9 8 8 8 8 8 8 8 8 8 8 7 7 7 7 7 7
16 16 16 15 15 14 14 14 13 13 13 13 12 12 12 11 11 10 10 9 9 9 8 8 8 8 8 8 8 8 7 7 7 7 7 7 7 7 7 7 7 7 7 7
15 16 15 15 14 14 13 13 13 12 12 12 12 11 11 10 10 9 9 9 8 8 8 8 8 8 8 7 7 7 7 7 7 7 7 6 6 6 6 6 6 6 6 6
15 15 14 14 13 13 13 12 12 12 11 11 11 10 10 10 9 9 9 8 8 8 7 7 7 7 7 7 7 7 6 6 6 6 6 6 6 6 6 6 6 6 6 6
14 13 13 13 12 12 12 11 11 11 11 10 10 10 9 9 9 8 8 8 7 7 7 7 7 6 6 6 6 6 6 6 6 6 6 5 5 5 5 5 5 5 5 5
12 12 12 12 11 11 11 11 10 10 10 10 9 9 9 8 8 8 7 7 7 7 6 6 6 6 6 6 5 5 5 5 5 5 5 5 5 5 5 5 5 5 5 5
12 11 11 11 10 10 10 10 10 9 9 9 8 8 8 8 7 7 7 7 6 6 6 6 5 5 5 5 5 5 4 4 4 4 4 4 4 4 4 4 4 4 4 4
11 11 10 10 10 10 9 9 9 9 8 8 8 8 7 7 7 7 6 6 6 6 5 5 5 5 5 4 4 4 4 4 4 4 4 4 4 4 4 3 3 3 3 3
10 10 10 10 9 9 9 9 8 8 8 7 7 7 7 6 6 6 6 6 5 5 5 5 5 4 4 4 4 4 3 3 3 3 3 3 3 3 3 3 3 3 3 3
10 10 9 9 9 8 8 8 8 7 7 7 6 6 6 6 6 6 5 5 5 5 4 4 4 4 3 3 3 3 3 3 3 3 3 3 3 3 3 2 2 2 2 2
9 9 9 8 8 8 7 7 7 7 6 6 6 6 5 5 5 5 5 5 4 4 4 4 4 3 3 3 3 3 2 2 2 2 2 2 2 2 2 2 2 2 2 2
8 8 8 8 7 7 7 7 6 6 6 6 5 5 5 5 5 4 4 4 4 4 4 3 3 3 3 2 2 2 2 2 2 2 2 2 2 2 2 1 1 1 1 2
8 7 7 7 7 6 6 6 6 6 5 5 5 5 4 4 4 4 4 4 4 3 3 3 3 3 2 2 2 2 2 1 1 1 1 1 1 1 1 1 1 1 1 1
7 7 7 6 6 6 6 5 5 5 5 5 4 4 4 4 4 3 3 3 3 3 3 3 2 2 2 2 2 2 1 1 1 1 1 1 1 0 0 0 0 0 0 0
6 6 6 6 6 5 5 5 5 5 4 4 4 4 3 3 3 3 3 3 3 3 3 2 2 2 2 2 1 1 1 1 1 1 0 0 -0 -0 -0 -0 -0 -0 -0 0
6 6 5 5 5 5 5 4 4 4 4 4 3 3 3 3 3 2 2 2 2 2 2 2 2 2 1 1 1 1 1 1 0 0 0 -0 -0 -1 -1 -1 -1 -0 -0 -0
5 5 5 5 4 4 4 4 4 3 3 3 3 3 3 2 2 2 2 2 2 2 1 1 1 1 1 1 1 0 0 0 -0 -0 -0 -1 -1 -1 -1 -1 -1 -1 -1 -1
5 4 4 4 4 4 3 3 3 3 3 3 2 2 2 2 2 2 1 1 1 1 1 1 1 1 0 0 0 -0 -0 -0 -1 -1 -1 -1 -1 -1 -1 -1 -1 -1 -1 -1
Wind_Speed
9 7 8 8 9 9 9 9 9 8 5 3 1 0 1 2 3 2 2 2 2 1 1 1 1 1 1 1 1 1 1 2 2 3 2 1 2 2 2 2 2 2 2 2
11 9 9 10 10 10 10 10 10 9 6 2 2 2 2 2 2 2 1 1 1 1 1 1 1 1 1 1 1 1 1 2 2 3 2 1 1 1 2 2 2 2 2 2
10 9 9 10 9 9 8 7 7 7 4 1 1 2 2 3 3 2 3 3 2 2 2 2 2 2 2 2 2 2 2 2 3 2 2 2 2 2 2 2 2 2 3 2
8 8 9 2 2 2 4 5 4 4 2 2 2 2 2 2 2 2 2 3 3 4 4 3 3 3 3 3 3 2 3 3 3 2 2 2 2 2 2 2 2 2 3 3
6 8 8 4 3 3 4 4 3 3 2 2 3 1 1 2 3 3 3 3 3 3 3 3 3 3 3 3 3 3 3 3 3 3 3 3 3 3 3 2 3 3 3 3
7 7 6 1 3 4 2 3 3 2 2 2 1 1 1 3 4 4 3 3 3 4 3 3 3 3 2 3 3 3 3 3 4 3 3 3 3 4 3 3 3 3 3 3
9 8 5 2 2 1 2 1 4 4 3 2 2 2 3 4 4 4 4 4 3 3 3 3 3 3 3 3 3 3 3 3 4 3 3 3 3 3 3 3 3 3 3 3
7 8 4 3 1 1 2 4 4 4 4 4 4 4 4 3 3 3 3 3 3 3 3 3 3 3 3 3 4 4 3 3 4 4 4 4 3 3 3 3 4 4 3 3
2 1 2 3 2 4 3 3 4 4 4 3 2 2 2 2 2 2 2 2 2 3 3 3 3 3 4 3 4 4 4 3 4 4 3 3 3 3 3 3 3 3 3 3
4 2 1 1 3 3 3 3 4 4 3 2 1 1 2 1 2 2 2 2 3 3 3 4 4 4 4 4 4 4 4 4 3 3 3 3 3 2 2 3 3 4 4 3
7 4 3 1 2 2 2 3 3 3 3 3 2 2 2 2 1 2 3 2 2 3 3 4 4 4 4 5 5 5 5 4 3 3 3 3 3 3 4 3 4 4 4 4
6 5 5 4 2 2 2 3 2 2 3 2 2 2 2 2 2 2 3 2 2 3 3 4 4 4 4 5 5 6 5 4 3 3 3 2 3 4 5 5 5 5 6 5
6 6 5 4 3 3 3 3 3 2 2 2 2 2 2 2 2 2 3 3 3 3 3 4 4 4 4 5 5 6 5 5 4 3 3 4 4 4 4 4 4 5 5 5
3 4 5 4 3 3 3 3 3 2 2 2 1 1 2 2 2 2 3 3 3 3 3 4 4 4 5 5 5 6 6 5 5 4 4 4 4 4 4 4 3 3 3 4
4 5 4 3 2 2 2 1 2 2 2 1 1 1 2 2 2 3 2 2 3 3 3 4 4 5 5 5 6 6 5 4 4 4 4 4 4 4 3 3 2 2 3 3
4 3 2 2 2 2 2 2 2 2 1 2 2 2 3 2 2 2 2 2 3 4 4 4 4 4 4 5 5 5 5 6 6 5 4 4 4 3 3 2 2 2 2 2
3 3 2 3 3 3 3 2 2 2 1 2 2 3 3 2 2 2 2 2 2 3 3 4 4 4 4 5 5 4 4 5 7 5 4 4 4 3 3 2 2 3 3 3
3 3 3 3 3 2 2 1 2 2 2 2 2 2 3 3 3 3 2 2 2 2 3 3 3 4 3 4 4 4 4 5 4 4 4 4 4 3 3 3 3 3 3 3
1 1 1 1 1 1 1 1 1 2 2 2 2 3 3 3 3 3 2 2 3 3 2 2 4 4 3 3 4 3 4 5 5 4 4 4 4 4 3 3 3 3 2 2
0 0 0 0 0 1 1 1 1 2 2 2 3 3 3 3 3 3 3 3 2 2 2 3 3 3 3 3 4 3 4 4 4 4 4 3 3 3 3 3 3 3 2 2
1 0 0 0 0 1 1 1 1 2 2 2 2 3 3 4 3 3 3 3 3 2 2 3 3 2 3 4 4 3 3 4 4 4 4 3 3 3 3 3 3 3 2 2
1 0 0 0 1 1 1 1 2 2 2 2 3 3 3 4 4 4 3 2 2 3 2 2 2 3 5 5 3 3 3 3 3 3 3 3 3 3 3 4 3 3 2 2
1 1 1 1 1 1 1 2 2 2 2 3 3 3 4 4 3 3 4 2 1 2 3 2 4 5 6 4 3 3 4 3 3 3 3 3 3 3 4 4 3 3 3 2
1 1 1 1 1 2 2 2 2 2 2 3 3 3 3 3 3 3 2 3 3 2 3 3 5 5 5 3 3 4 3 3 3 3 3 3 3 3 4 4 3 3 3 3
1 1 1 1 1 2 2 2 3 2 3 2 3 3 2 2 3 3 3 3 3 3 3 4 5 5 4 3 3 3 3 3 3 3 3 3 3 4 4 3 3 3 3 3
1 1 1 1 1 1 2 2 2 2 2 3 3 2 2 2 2 2 2 3 4 4 3 2 3 3 3 3 4 3 3 3 4 3 3 3 4 4 3 3 4 3 3 3
1 1 1 1 2 2 2 2 3 3 2 2 3 3 3 3 2 2 3 3 3 3 2 2 2 3 3 3 3 3 3 3 3 3 3 3 3 3 3 4 4 3 3 4
Wind_Direction
286 289 293 289 281 266 255 261 272 285 288 281 296 74 85 98 100 101 87 84 71 53 59 75 61 68 78 66 43 342 337 328 321 307 284 262 266 268 266 262 270 261 253 249
279 276 279 279 275 267 261 264 270 280 286 302 344 25 50 60 63 59 62 43 40 42 60 79 58 20 30 17 354 340 324 315 329 329 322 305 286 278 279 267 266 271 273 263
280 282 281 267 267 260 254 255 271 281 293 46 14 25 35 33 42 28 19 16 4 1 21 25 22 24 13 355 356 344 327 327 332 328 327 327 314 300 276 274 278 271 267 261
278 280 263 270 343 312 274 275 292 304 337 35 69 55 63 60 47 15 9 6 7 3 9 12 20 13 360 359 347 334 339 337 338 337 326 327 316 289 276 278 275 272 270 260
269 271 268 261 292 305 285 274 314 309 329 29 57 55 71 36 38 37 26 12 9 6 359 356 2 2 358 346 343 350 341 332 333 332 325 320 308 297 281 274 279 275 269 260
262 266 273 308 51 41 330 280 35 17 14 53 12 293 32 52 37 25 31 23 15 1 351 351 352 357 351 332 337 338 329 328 325 323 315 305 298 292 295 285 270 264 272 269
256 262 265 53 74 70 266 357 43 34 26 22 356 7 49 49 44 30 25 17 8 1 351 351 351 340 327 333 335 331 331 329 321 316 305 299 299 300 298 293 281 266 266 273
244 251 254 89 120 353 27 31 24 25 23 29 25 37 44 38 34 24 14 10 1 356 350 346 339 333 327 338 329 326 323 319 313 306 304 309 301 297 293 289 283 273 261 265
277 286 51 77 55 41 22 6 15 16 23 44 21 16 18 15 10 356 354 357 357 355 343 335 338 339 332 332 328 319 315 309 301 302 303 302 294 292 295 296 287 282 267 259
273 249 301 53 36 19 3 7 13 12 8 8 335 328 333 338 351 355 356 356 353 343 338 339 342 344 336 327 318 312 305 300 298 301 305 305 299 286 283 282 282 282 278 273
278 288 307 296 346 347 353 353 354 347 330 322 323 310 312 313 339 351 340 336 341 331 328 327 332 333 333 327 318 310 306 305 304 300 291 294 302 293 281 272 268 273 274 270
278 290 291 287 292 297 298 300 310 310 305 312 309 302 310 318 338 341 328 330 327 324 327 326 325 326 332 326 320 317 315 312 306 302 295 285 283 302 301 280 289 284 281 276
298 319 317 316 317 316 299 298 300 295 290 294 304 309 312 309 315 323 321 321 315 322 323 321 326 332 333 333 328 321 317 317 315 307 302 295 286 279 288 291 284 287 286 284
326 325 306 304 306 308 300 301 302 296 287 279 297 304 310 307 310 307 313 319 324 322 318 322 328 336 342 339 332 326 325 324 320 313 305 298 293 289 286 281 283 284 283 275
287 293 290 301 291 290 302 302 293 289 298 311 317 304 297 291 292 305 317 318 326 322 323 336 338 339 343 340 333 329 326 322 319 314 307 303 302 302 295 283 278 285 292 290
278 286 273 260 258 276 284 268 272 278 293 308 305 297 291 292 301 308 316 321 321 322 333 332 330 338 343 343 338 330 325 322 322 317 315 315 317 319 316 307 295 286 283 293
244 251 246 243 249 257 266 273 282 287 295 305 308 305 301 301 295 291 300 319 324 327 332 331 338 346 352 348 337 330 330 326 323 322 321 323 324 322 317 308 300 296 291 287
239 243 239 239 249 260 273 310 314 314 322 323 316 302 292 283 282 288 299 315 316 318 320 332 347 344 342 340 337 335 331 327 325 322 321 321 319 316 313 303 292 292 291 288
253 261 270 272 278 299 310 316 314 318 324 320 303 290 286 285 290 299 308 303 297 296 310 348 345 333 326 331 333 325 321 318 318 317 316 320 321 318 313 307 304 303 299 287
279 307 250 265 17 359 334 322 308 300 295 293 291 290 291 293 297 299 296 294 293 307 343 355 332 318 318 324 327 316 313 312 313 315 317 315 313 312 311 308 304 299 300 304
251 251 219 132 24 333 314 304 295 289 288 283 282 290 297 301 300 297 294 297 307 336 341 327 314 314 327 330 315 308 306 306 309 313 314 314 313 311 311 308 306 309 312 318
228 215 181 198 239 271 286 296 296 301 302 301 300 299 301 303 306 305 299 289 308 329 326 310 308 317 322 322 305 301 297 298 303 305 306 307 305 304 303 304 303 311 317 320
226 235 231 243 260 284 300 299 301 308 304 300 299 297 296 296 294 291 297 302 317 304 306 303 308 311 316 316 301 295 298 301 302 302 304 305 302 300 300 301 303 307 310 312
234 235 254 282 299 288 285 297 308 299 295 291 282 284 294 302 301 296 295 308 309 288 287 289 296 302 308 302 299 300 301 303 305 306 309 309 306 303 302 303 305 306 304 304
256 262 261 259 271 276 285 299 304 295 286 280 280 288 291 288 293 306 311 308 297 287 280 280 287 295 294 290 293 296 299 297 300 303 298 301 304 304 303 303 302 299 294 288
313 304 296 285 285 290 291 293 293 291 290 291 293 293 293 296 293 296 300 293 288 288 288 286 282 279 277 282 288 294 298 301 299 294 292 295 297 298 296 297 297 295 290 287
289 299 302 299 300 296 290 287 286 286 287 288 298 308 315 315 314 307 302 299 294 288 288 289 294 288 285 284 285 291 294 291 290 291 296 298 299 297 296 294 292 290 292 291
Height
1502 1500 1500 1501 1501 1500 1503 1504 1508 1504 1504 1502 1502 1503 1504 1505 1506 1507 1508 1508 1509 1509 1509 1509 1509 1509 1509 1509 1508 1508 1507 1506 1506 1506 1506 1506 1506 1506 1506 1507 1507 1507 1507 1507
1504 1499 1499 1500 1498 1498 1499 1499 1499 1500 1502 1498 1500 1501 1503 1504 1505 1506 1507 1507 1508 1508 1508 1508 1508 1508 1507 1507 1506 1505 1505 1504 1503 1503 1502 1502 1503 1503 1503 1503 1503 1503 1503 1503
1507 1499 1499 1503 1496 1495 1496 1496 1498 1501 1501 1498 1501 1502 1503 1504 1505 1506 1506 1506 1506 1506 1506 1506 1506 1506 1505 1505 1504 1503 1502 1502 1501 1500 1499 1499 1499 1499 1499 1499 1499 1499 1499 1500
1507 1505 1514 1500 1490 1491 1493 1494 1495 1496 1497 1498 1501 1502 1504 1504 1504 1505 1505 1505 1505 1505 1505 1504 1504 1504 1503 1502 1502 1501 1500 1499 1498 1497 1496 1495 1495 1495 1495 1495 1495 1495 1495 1495
1509 1509 1503 1496 1492 1491 1494 1495 1494 1496 1497 1498 1500 1502 1504 1504 1504 1504 1504 1504 1504 1504 1503 1503 1503 1502 1501 1500 1499 1498 1497 1496 1495 1494 1493 1492 1492 1492 1492 1492 1491 1491 1491 1491
1507 1511 1511 1499 1492 1492 1495 1499 1495 1496 1497 1498 1500 1503 1504 1504 1503 1504 1504 1504 1503 1503 1502 1502 1501 1500 1499 1498 1497 1496 1494 1493 1492 1490 1490 1489 1489 1488 1488 1488 1487 1487 1487 1487
1507 1507 1500 1495 1494 1494 1504 1503 1497 1497 1498 1499 1500 1502 1503 1503 1503 1503 1502 1502 1501 1501 1500 1500 1499 1498 1496 1496 1495 1493 1492 1491 1489 1488 1487 1486 1486 1485 1485 1484 1484 1483 1482 1482
1502 1505 1504 1495 1495 1498 1500 1497 1497 1498 1499 1500 1500 1501 1501 1501 1501 1501 1501 1501 1500 1499 1498 1498 1497 1496 1494 1493 1492 1491 1490 1488 1487 1485 1484 1483 1483 1482 1481 1480 1479 1479 1478 1478
1496 1499 1496 1495 1496 1497 1498 1498 1498 1499 1499 1500 1500 1500 1501 1501 1500 1500 1499 1499 1498 1497 1496 1495 1495 1494 1493 1491 1490 1488 1487 1485 1484 1482 1481 1480 1479 1478 1477 1476 1475 1474 1474 1473
1493 1493 1494 1495 1496 1497 1497 1498 1498 1499 1499 1499 1499 1500 1500 1500 1499 1499 1498 1497 1496 1495 1494 1493 1492 1491 1490 1489 1487 1486 1484 1482 1481 1479 1478 1477 1476 1475 1473 1472 1471 1470 1470 1469
1492 1492 1493 1494 1495 1496 1496 1497 1497 1497 1498 1498 1498 1498 1498 1498 1497 1497 1496 1496 1495 1493 1492 1491 1490 1489 1488 1486 1484 1482 1481 1479 1477 1476 1474 1473 1471 1471 1469 1468 1468 1467 1466 1465
1493 1492 1492 1492 1493 1493 1494 1495 1495 1495 1495 1496 1496 1496 1496 1496 1495 1495 1494 1493 1492 1491 1490 1489 1487 1486 1485 1483 1481 1479 1477 1476 1474 1472 1470 1469 1467 1466 1465 1464 1463 1463 1462 1462
1491 1490 1490 1490 1491 1491 1492 1492 1493 1493 1493 1493 1493 1494 1493 1493 1493 1492 1492 1491 1490 1489 1488 1486 1485 1483 1481 1480 1478 1476 1474 1472 1470 1468 1466 1465 1463 1461 1458 1458 1458 1458 1457 1457
1488 1488 1488 1488 1489 1489 1490 1490 1490 1490 1490 1490 1491 1491 1491 1490 1490 1490 1489 1488 1487 1486 1485 1483 1482 1480 1478 1476 1474 1472 1470 1469 1467 1464 1462 1460 1458 1456 1454 1452 1452 1452 1453 1453
1486 1486 1486 1486 1486 1487 1487 1487 1487 1488 1488 1488 1488 1488 1488 1488 1487 1487 1486 1485 1484 1483 1482 1480 1478 1477 1475 1473 1471 1469 1467 1465 1463 1461 1459 1457 1455 1452 1450 1449 1449 1448 1448 1449
1483 1483 1483 1484 1484 1485 1485 1485 1485 1485 1486 1486 1486 1486 1486 1485 1485 1484 1483 1482 1481 1480 1478 1477 1475 1474 1472 1470 1468 1466 1464 1462 1460 1458 1455 1453 1451 1449 1448 1447 1446 1445 1445 1445
1480 1480 1481 1482 1482 1482 1483 1483 1483 1483 1483 1483 1483 1483 1483 1482 1482 1481 1480 1479 1478 1477 1476 1474 1472 1471 1469 1467 1465 1463 1461 1459 1457 1455 1452 1451 1449 1447 1446 1445 1444 1443 1442 1442
1478 1478 1479 1479 1480 1480 1481 1481 1481 1481 1481 1480 1480 1480 1480 1479 1478 1478 1477 1476 1475 1474 1473 1471 1470 1468 1466 1464 1462 1460 1458 1456 1454 1452 1450 1448 1446 1445 1443 1443 1441 1440 1439 1439
1475 1476 1477 1477 1478 1478 1479 1479 1479 1479 1478 1478 1477 1477 1477 1476 1476 1475 1474 1473 1472 1471 1470 1468 1467 1465 1463 1461 1460 1458 1456 1454 1452 1450 1448 1446 1444 1443 1441 1440 1439 1438 1437 1436
1474 1474 1475 1475 1476 1476 1477 1477 1477 1476 1476 1476 1475 1475 1474 1473 1473 1472 1471 1470 1469 1468 1467 1465 1464 1462 1460 1459 1457 1455 1453 1451 1449 1447 1446 1444 1442 1441 1439 1438 1437 1435 1434 1434
1472 1473 1473 1473 1474 1474 1475 1475 1474 1474 1474 1473 1473 1472 1471 1471 1470 1469 1468 1467 1466 1465 1464 1462 1461 1459 1457 1456 1454 1452 1450 1449 1447 1445 1443 1441 1440 1438 1437 1436 1435 1433 1432 1431
1470 1471 1471 1471 1472 1472 1472 1472 1472 1471 1471 1470 1470 1469 1468 1468 1467 1466 1465 1464 1463 1462 1460 1459 1458 1456 1454 1452 1451 1449 1447 1446 1444 1442 1441 1439 1437 1436 1435 1433 1432 1430 1429 1428
1469 1469 1469 1469 1470 1470 1470 1470 1469 1469 1468 1468 1467 1466 1466 1465 1464 1463 1461 1460 1459 1458 1457 1455 1454 1452 1451 1449 1447 1446 1444 1443 1441 1439 1438 1436 1435 1433 1432 1430 1428 1427 1426 1424
1467 1467 1467 1467 1467 1467 1467 1467 1466 1466 1465 1465 1464 1463 1463 1461 1460 1459 1458 1457 1456 1454 1453 1452 1450 1449 1447 1445 1444 1442 1441 1439 1438 1436 1435 1433 1431 1430 1428 1427 1425 1424 1422 1421
1464 1465 1465 1465 1465 1464 1464 1464 1463 1463 1462 1461 1461 1460 1459 1458 1457 1456 1454 1453 1452 1451 1449 1448 1446 1445 1443 1442 1440 1439 1437 1436 1434 1433 1431 1430 1428 1426 1425 1423 1422 1420 1419 1417
1462 1462 1462 1462 1462 1462 1462 1461 1460 1460 1459 1458 1457 1457 1456 1455 1454 1452 1451 1449 1448 1447 1445 1444 1442 1441 1439 1438 1437 1435 1434 1432 1431 1429 1428 1426 1424 1423 1421 1420 1418 1417 1416 1414
1460 1460 1460 1460 1459 1459 1458 1458 1457 1457 1456 1455 1454 1453 1452 1451 1450 1448 1447 1446 1444 1443 1441 1440 1438 1437 1435 1434 1433 1432 1430 1429 1427 1426 1424 1422 1421 1419 1417 1416 1414 1413 1412 1411